GW3620 Weather Reports


Display with metric or nautical units.
time (UTC)temp
F
wind
direction
speed
MPH
gust
MPH
rain 1hr
in
rain 24hr
in
rain mn
in
humidity
%
barometer
mb
20260507124031 56 0 0.0 0.0 0.00 0.00 0.00 48 1014.0
20260507123033 55 333 0.0 1.0 0.00 0.00 0.00 47 1013.7
20260507122033 56 0 0.0 0.0 0.00 0.00 0.00 48 1013.7
20260507121033 56 339 0.0 3.0 0.00 0.00 0.00 47 1013.9
20260507120033 58 340 0.0 3.0 0.00 0.00 0.00 44 1013.5
20260507115033 59 64 0.0 1.0 0.00 0.00 0.00 40 1013.5
20260507114033 60 0 0.0 0.0 0.00 0.00 0.00 37 1013.4
20260507113031 60 27 0.0 1.0 0.00 0.00 0.00 36 1013.4
20260507112033 60 27 0.0 1.0 0.00 0.00 0.00 36 1013.4
20260507111033 60 26 1.0 4.0 0.00 0.00 0.00 36 1013.5
20260507110033 60 24 1.0 4.0 0.00 0.00 0.00 36 1013.5
20260507105050 60 22 1.0 6.0 0.00 0.00 0.00 36 1013.5
20260507104050 59 24 1.0 6.0 0.00 0.00 0.00 37 1013.6
20260507103033 59 31 0.0 3.0 0.00 0.00 0.00 38 1013.7
20260507102033 59 38 0.0 3.0 0.00 0.00 0.00 39 1013.7
20260507101050 59 54 0.0 1.0 0.00 0.00 0.00 38 1013.8
20260507100033 59 44 0.0 1.0 0.00 0.00 0.00 37 1014.0
20260507095033 59 71 0.0 1.0 0.00 0.00 0.00 37 1014.0
20260507094033 59 66 0.0 3.0 0.00 0.00 0.00 37 1014.0
20260507093033 59 0 0.0 0.0 0.00 0.00 0.00 38 1014.0
20260507092033 60 49 0.0 4.0 0.00 0.00 0.00 37 1014.0
20260507091031 61 0 0.0 0.0 0.00 0.00 0.00 35 1014.0
20260507090033 61 0 0.0 0.0 0.00 0.00 0.00 33 1014.0
20260507085033 61 0 0.0 0.0 0.00 0.00 0.00 33 1014.0
20260507084033 61 65 0.0 1.0 0.00 0.00 0.00 32 1014.1
20260507083050 62 66 0.0 1.0 0.00 0.00 0.00 33 1014.4
20260507082033 62 69 0.0 3.0 0.00 0.00 0.00 33 1014.4
20260507081050 62 77 2.0 6.0 0.00 0.00 0.00 32 1014.4
20260507080031 63 68 1.0 4.0 0.00 0.00 0.00 32 1014.2
20260507075033 64 67 1.0 6.0 0.00 0.00 0.00 30 1014.2
20260507074050 64 63 0.0 4.0 0.00 0.00 0.00 30 1014.2
20260507073033 63 58 0.0 3.0 0.00 0.00 0.00 30 1014.4
20260507072033 63 67 1.0 3.0 0.00 0.00 0.00 31 1014.4
20260507071033 64 69 1.0 6.0 0.00 0.00 0.00 30 1014.2
20260507070031 64 59 0.0 1.0 0.00 0.00 0.00 29 1014.2
20260507065033 64 32 0.0 1.0 0.00 0.00 0.00 29 1014.2
20260507064033 64 32 0.0 3.0 0.00 0.00 0.00 29 1014.2
20260507063050 64 67 0.0 1.0 0.00 0.00 0.00 30 1014.5
20260507062050 63 60 0.0 3.0 0.00 0.00 0.00 31 1014.5
20260507061033 64 71 0.0 1.0 0.00 0.00 0.00 31 1014.4
20260507060033 65 75 1.0 4.0 0.00 0.00 0.00 30 1014.4
20260507055031 65 70 4.0 7.0 0.00 0.00 0.00 29 1014.4
20260507054033 65 75 2.0 7.0 0.00 0.00 0.00 29 1014.3
20260507053033 65 70 4.0 9.0 0.00 0.00 0.00 29 1014.6
20260507052033 65 88 1.0 4.0 0.00 0.00 0.00 29 1014.6
20260507051033 65 68 2.0 9.0 0.00 0.00 0.00 29 1014.6
20260507050033 65 68 0.0 3.0 0.00 0.00 0.00 28 1014.4
20260507045033 65 62 1.0 3.0 0.00 0.00 0.00 28 1014.4
20260507044031 65 65 1.0 4.0 0.00 0.00 0.00 29 1014.4
20260507043033 65 71 0.0 3.0 0.00 0.00 0.00 29 1014.6
20260507042033 66 63 0.0 1.0 0.00 0.00 0.00 29 1014.6
20260507041033 66 56 0.0 1.0 0.00 0.00 0.00 29 1014.3
20260507040033 66 0 0.0 0.0 0.00 0.00 0.00 28 1014.2
20260507035033 67 0 0.0 0.0 0.00 0.00 0.00 27 1014.2
20260507034033 67 44 0.0 3.0 0.00 0.00 0.00 27 1014.0
20260507033031 68 0 0.0 0.0 0.00 0.00 0.00 26 1013.9
20260507032033 68 0 0.0 0.0 0.00 0.00 0.00 25 1013.9
20260507031033 69 307 0.0 1.0 0.00 0.00 0.00 24 1013.5
20260507030033 70 0 0.0 0.0 0.00 0.00 0.00 23 1013.4
20260507025033 71 0 0.0 0.0 0.00 0.00 0.00 22 1013.4
20260507024033 71 0 0.0 0.0 0.00 0.00 0.00 21 1013.1
20260507023033 72 0 0.0 0.0 0.00 0.00 0.00 20 1013.1
20260507022105 73 307 4.0 10.0 0.00 0.00 0.00 20 1013.1
20260507021033 73 302 0.0 4.0 0.00 0.00 0.00 19 1013.0
20260507020033 74 299 4.0 9.0 0.00 0.00 0.00 19 1013.0
20260507015033 74 319 4.0 9.0 0.00 0.00 0.00 19 1013.0
20260507014033 75 305 3.0 7.0 0.00 0.00 0.00 19 1012.8
20260507013050 76 307 5.0 9.0 0.00 0.00 0.00 18 1013.5
20260507012031 76 292 5.0 12.0 0.00 0.00 0.00 18 1013.5
20260507010033 77 302 5.0 13.0 0.00 0.00 0.00 19 1013.3
20260507005050 77 307 6.0 13.0 0.00 0.00 0.00 19 1013.3
20260507004033 77 304 7.0 12.0 0.00 0.00 0.00 19 1013.1
20260507003050 77 296 8.0 12.0 0.00 0.00 0.00 19 1013.0
20260507002050 77 297 8.0 13.0 0.00 0.00 0.00 19 1013.0
20260507001048 78 288 5.0 13.0 0.00 0.00 0.00 19 1013.1
20260507000033 78 302 4.0 13.0 0.00 0.00 0.00 20 1012.9
20260506235033 78 319 3.0 9.0 0.00 0.00 0.00 20 1012.9
20260506234033 78 306 7.0 13.0 0.00 0.00 0.00 20 1013.1
20260506233033 78 285 8.0 15.0 0.00 0.00 0.00 20 1013.1
20260506232033 78 305 4.0 13.0 0.00 0.00 0.00 21 1013.1
20260506231050 78 304 6.0 12.0 0.00 0.00 0.00 21 1013.2
20260506230031 78 297 5.0 12.0 0.00 0.00 0.00 21 1013.2
20260506225033 77 312 2.0 7.0 0.00 0.00 0.00 21 1013.2
20260506224033 77 308 5.0 13.0 0.00 0.00 0.00 21 1013.2
20260506223033 77 306 4.0 13.0 0.00 0.00 0.00 21 1013.3
20260506222033 77 298 3.0 9.0 0.00 0.00 0.00 22 1013.3
20260506221033 77 282 7.0 18.0 0.00 0.00 0.00 22 1013.6
20260506220050 77 291 7.0 13.0 0.00 0.00 0.00 22 1013.6
20260506215031 77 85 4.0 13.0 0.00 0.00 0.00 22 1013.6
20260506214033 77 279 6.0 12.0 0.00 0.00 0.00 23 1013.7
20260506213050 76 292 7.0 19.0 0.00 0.00 0.00 23 1013.6
20260506212033 77 301 7.0 13.0 0.00 0.00 0.00 23 1013.6
20260506211033 77 293 4.0 10.0 0.00 0.00 0.00 23 1014.0
20260506210033 76 311 2.0 7.0 0.00 0.00 0.00 24 1014.3
20260506205107 76 302 1.0 7.0 0.00 0.00 0.00 25 1014.3
20260506204031 75 300 6.0 16.0 0.00 0.00 0.00 25 1014.3
20260506203033 75 300 5.0 15.0 0.00 0.00 0.00 25 1014.3
20260506202048 75 287 6.0 9.0 0.00 0.00 0.00 25 1014.3
20260506201050 74 65 4.0 9.0 0.00 0.00 0.00 26 1014.6
20260506200033 74 276 4.0 10.0 0.00 0.00 0.00 25 1014.9
20260506195033 74 70 1.0 6.0 0.00 0.00 0.00 24 1014.9
20260506194033 74 272 3.0 9.0 0.00 0.00 0.00 24 1015.0
20260506193031 74 68 2.0 6.0 0.00 0.00 0.00 24 1015.1
20260506192033 74 74 1.0 6.0 0.00 0.00 0.00 24 1015.1
20260506191050 73 35 1.0 7.0 0.00 0.00 0.00 24 1015.3
20260506190033 73 305 3.0 10.0 0.00 0.00 0.00 24 1015.5
20260506185033 73 349 0.0 4.0 0.00 0.00 0.00 24 1015.5
20260506184033 72 341 1.0 7.0 0.00 0.00 0.00 25 1015.8
20260506183048 72 65 2.0 7.0 0.00 0.00 0.00 25 1015.8
20260506182033 71 28 1.0 9.0 0.00 0.00 0.00 26 1015.8
20260506181050 71 9 0.0 3.0 0.00 0.00 0.00 27 1016.1
20260506180033 71 295 1.0 10.0 0.00 0.00 0.00 27 1016.1
20260506175033 70 62 1.0 6.0 0.00 0.00 0.00 28 1016.1
20260506174033 70 353 0.0 3.0 0.00 0.00 0.00 30 1016.2
20260506173033 69 283 1.0 10.0 0.00 0.00 0.00 34 1016.1
20260506172031 69 307 0.0 6.0 0.00 0.00 0.00 32 1016.1
20260506171033 68 301 0.0 4.0 0.00 0.00 0.00 33 1016.2
20260506170033 67 314 1.0 9.0 0.00 0.00 0.00 35 1016.3
20260506165033 67 272 2.0 7.0 0.00 0.00 0.00 35 1016.3
20260506164033 67 271 2.0 7.0 0.00 0.00 0.00 36 1016.2
20260506163033 66 274 2.0 9.0 0.00 0.00 0.00 37 1015.9
20260506162050 66 54 0.0 3.0 0.00 0.00 0.00 37 1015.9
20260506161048 65 42 0.0 1.0 0.00 0.00 0.00 38 1015.9
20260506160031 65 52 1.0 6.0 0.00 0.00 0.00 39 1015.9
20260506155107 64 52 1.0 6.0 0.00 0.00 0.00 40 1015.9
20260506154033 64 333 0.0 6.0 0.00 0.00 0.00 40 1016.1
20260506153050 64 352 0.0 4.0 0.00 0.00 0.00 41 1016.0
20260506152033 63 346 0.0 3.0 0.00 0.00 0.00 42 1016.0
20260506151050 63 87 0.0 3.0 0.00 0.00 0.00 42 1015.8
20260506150031 62 328 0.0 1.0 0.00 0.00 0.00 44 1015.8
20260506145033 61 0 0.0 0.0 0.00 0.00 0.00 46 1015.8
20260506144033 60 328 0.0 3.0 0.00 0.00 0.00 50 1016.0
20260506143050 59 0 0.0 0.0 0.00 0.00 0.00 51 1015.9
20260506142031 58 70 0.0 3.0 0.00 0.00 0.00 53 1015.9
20260506141050 57 0 0.0 0.0 0.00 0.00 0.00 57 1016.0
20260506140033 56 88 0.0 1.0 0.00 0.00 0.00 59 1016.1
20260506135033 54 82 0.0 1.0 0.00 0.00 0.00 61 1016.1
20260506134033 53 68 0.0 3.0 0.00 0.00 0.00 64 1016.5
20260506133033 51 43 0.0 1.0 0.00 0.00 0.00 68 1016.2
20260506132033 50 57 0.0 4.0 0.00 0.00 0.00 69 1016.2
20260506131033 50 279 1.0 6.0 0.00 0.00 0.00 71 1016.0
20260506130033 50 284 1.0 3.0 0.00 0.00 0.00 72 1015.8
20260506125033 50 285 1.0 3.0 0.00 0.00 0.00 72 1015.8